Date,TemperatureHighF,TemperatureAvgF,TemperatureLowF,DewpointHighF,DewpointAvgF,DewpointLowF,HumidityHigh,HumidityAvg,HumidityLow,PressureMaxIn,PressureMinIn,WindSpeedMaxMPH,WindSpeedAvgMPH,GustSpeedMaxMPH,PrecipitationSumIn
2013-2-1,47.3,36.4,22.6,22.6,18.1,12.3,83,50,28,30.10,29.92,14,4,28,0.00
2013-2-2,56.3,39.4,22.3,20.4,14.5,5.1,75,41,13,30.20,30.07,9,2,19,0.00
2013-2-3,54.3,38.9,24.3,18.8,11.1,-2.2,66,37,10,30.12,29.75,10,2,19,0.00
2013-2-4,52.9,40.1,22.4,14.7,8.9,0.1,64,31,12,29.85,29.68,17,5,33,0.00
2013-2-5,60.5,45.5,35.0,19.9,15.9,13.7,49,31,18,29.87,29.62,4,1,10,0.00
2013-2-6,52.4,41.5,30.3,33.0,23.8,19.0,93,53,29,29.92,29.59,8,2,17,0.02
2013-2-7,49.8,35.1,23.3,32.2,20.7,8.9,95,61,27,30.03,29.91,5,1,13,0.00
2013-2-8,50.7,33.6,21.3,16.8,12.5,7.7,71,44,18,29.92,29.61,5,1,11,0.00
2013-2-9,34.9,29.1,22.1,28.3,19.7,11.6,90,69,46,29.62,29.44,7,2,17,0.00
2013-2-10,34.2,25.3,20.6,20.3,14.3,7.6,91,66,34,30.05,29.53,6,2,15,0.00
2013-2-11,27.0,21.3,15.5,15.8,13.9,10.5,88,73,56,30.09,29.98,4,1,11,0.00
2013-2-12,42.5,26.6,12.1,13.4,3.9,-7.1,84,46,13,30.11,30.02,3,1,12,0.00
2013-2-13,45.2,33.5,17.9,15.3,11.2,5.5,72,42,25,30.04,29.88,16,5,36,0.00
2013-2-14,39.7,27.4,21.9,22.5,17.9,10.9,87,69,31,30.24,29.91,10,2,24,0.00
2013-2-15,42.0,26.4,14.0,19.5,14.1,9.9,88,63,28,30.34,30.22,8,1,15,0.02
2013-2-16,54.1,44.7,23.5,15.4,12.2,8.1,70,28,18,30.22,29.78,14,6,28,0.00
2013-2-17,61.4,43.8,27.2,17.0,4.0,-16.8,50,24,4,29.79,29.33,11,3,24,0.00
2013-2-18,39.3,30.6,22.2,20.7,10.2,0.0,84,48,20,30.03,29.57,14,3,28,0.00
2013-2-19,39.2,28.2,16.5,14.2,10.0,6.0,69,48,28,30.03,29.76,6,1,12,0.00
2013-2-20,34.7,25.2,18.8,27.3,17.9,13.7,94,75,48,29.77,29.58,5,2,13,0.00
2013-2-21,25.8,19.9,13.8,20.2,16.1,11.2,92,85,69,29.95,29.70,5,1,12,0.00
2013-2-22,34.6,24.7,14.1,18.6,14.1,4.2,92,66,35,30.00,29.87,9,1,19,0.05
2013-2-23,46.6,31.1,16.0,26.3,15.6,3.5,93,55,29,29.87,29.54,7,3,14,0.04
2013-2-24,28.3,25.6,23.2,26.4,23.5,17.7,95,92,79,30.10,29.65,14,5,28,0.00
2013-2-25,41.0,25.3,10.8,20.2,14.6,8.0,92,67,30,30.10,29.82,3,0,8,0.04
2013-2-26,33.7,25.8,15.6,25.7,18.2,10.7,88,73,54,30.15,29.80,11,3,24,0.00
2013-2-27,36.6,26.8,17.1,14.2,9.5,2.4,70,49,28,30.24,30.15,5,1,13,0.01
2013-2-28,41.5,30.1,11.5,16.3,9.7,3.5,79,45,22,30.26,30.15,12,4,24,0.00